Weather History for Hibbing, MN

Change the Weather History Date:

Tuesday, May 15, 2012

  Actual Average Record
Temperature  
Mean Temperature 50 °F -  
Max Temperature 63 °F 66 °F 88 °F (1977)
Min Temperature 37 °F 39 °F 19 °F (2004)
Degree Days  
Heating Degree Days 14    
Moisture  
Dew Point 36 °F    
Average Humidity 54    
Maximum Humidity 89    
Minimum Humidity 30    
Precipitation  
Precipitation 0.00 in - - ()
Sea Level Pressure  
Sea Level Pressure 29.93 in    
Wind  
Wind Speed 11 mph (NNW)    
Max Wind Speed 24 mph    
Max Gust Speed 34 mph    
Visibility 10 miles    
Events      
Averages and records for this station are not official NWS values.
T = Trace of Precipitation, MM = Missing Value Source: NWS Daily Summary

Daily Weather History Graph

Daily Weather History Graph

Search for Another Location

Airport:

Trip Planner

Search our weather history database for the weather conditions in past years. The results will help you decide how hot, cold, wet, or windy it might be!

Date:

Astronomy

May. 15, 2012 Rise Set
Actual Time 5:34 AM CDT 8:42 PM CDT
Civil Twilight 4:57 AM CDT 9:18 PM CDT
Nautical Twilight 4:10 AM CDT 10:06 PM CDT
Astronomical Twilight 3:11 AM CDT 11:05 PM CDT
Moon 2:56 AM CDT (5/15) 3:43 PM CDT (5/15)
Length of Visible Light 16h 21m
Length of Day
15h 08m
Waning Crescent, 23% of the Moon is Illuminated
May 15
Waning Crescent
May 20
New
May 28
First Quarter
Jun 4
Full
Jun 11
Last Quarter

Hourly Weather History & Observations

Time (CDT) Temp. Windchill Dew Point Humidity Pressure Visibility Wind Dir Wind Speed Gust Speed Precip Events Conditions
12:53 AM 46.0 °F - 42.1 °F 86% 29.74 in 10.0 mi Calm Calm - N/A   Clear
1:53 AM 55.9 °F - 44.1 °F 64% 29.76 in 10.0 mi NW 8.1 mph 29.9 mph N/A   Partly Cloudy
2:53 AM 48.9 °F - 43.0 °F 80% 29.72 in 10.0 mi Calm Calm - N/A   Clear
3:53 AM 43.0 °F 38.8 °F 39.9 °F 89% 29.75 in 10.0 mi NW 6.9 mph - N/A   Clear
4:53 AM 55.0 °F - 41.0 °F 59% 29.76 in 10.0 mi NNW 18.4 mph 24.2 mph N/A   Clear
5:53 AM 53.1 °F - 39.9 °F 61% 29.79 in 10.0 mi NNW 13.8 mph 23.0 mph N/A   Clear
6:53 AM 53.1 °F - 41.0 °F 64% 29.83 in 10.0 mi NNW 16.1 mph 25.3 mph N/A   Clear
7:53 AM 55.0 °F - 42.1 °F 62% 29.86 in 10.0 mi North 18.4 mph 26.5 mph N/A   Clear
8:53 AM 57.0 °F - 42.1 °F 57% 29.89 in 10.0 mi North 19.6 mph 27.6 mph N/A   Clear
9:53 AM 59.0 °F - 42.1 °F 53% 29.92 in 10.0 mi NNW 21.9 mph 27.6 mph N/A   Clear
10:53 AM 60.1 °F - 41.0 °F 49% 29.94 in 10.0 mi NNW 18.4 mph - N/A   Mostly Cloudy
11:53 AM 62.1 °F - 39.0 °F 43% 29.96 in 10.0 mi North 19.6 mph 34.5 mph N/A   Scattered Clouds
12:53 PM 59.0 °F - 37.9 °F 46% 29.98 in 10.0 mi NNW 24.2 mph 33.4 mph N/A   Scattered Clouds
1:53 PM 60.1 °F - 36.0 °F 41% 29.99 in 10.0 mi North 17.3 mph 26.5 mph N/A   Mostly Cloudy
2:53 PM 61.0 °F - 35.1 °F 38% 30.00 in 10.0 mi North 15.0 mph 25.3 mph N/A   Scattered Clouds
3:53 PM 61.0 °F - 32.0 °F 34% 30.01 in 10.0 mi NNW 21.9 mph 27.6 mph N/A   Partly Cloudy
4:53 PM 62.1 °F - 30.0 °F 30% 30.01 in 10.0 mi North 18.4 mph 25.3 mph N/A   Scattered Clouds
5:53 PM 61.0 °F - 28.9 °F 30% 30.02 in 10.0 mi NNW 18.4 mph 24.2 mph N/A   Partly Cloudy
6:53 PM 59.0 °F - 28.0 °F 31% 30.04 in 10.0 mi North 15.0 mph - N/A   Clear
7:53 PM 55.0 °F - 28.0 °F 35% 30.05 in 10.0 mi North 12.7 mph - N/A   Clear
8:53 PM 50.0 °F - 28.0 °F 43% 30.06 in 10.0 mi North 8.1 mph - N/A   Clear
9:53 PM 43.0 °F 39.5 °F 28.0 °F 56% 30.09 in 10.0 mi North 5.8 mph - N/A   Clear
10:53 PM 39.9 °F - 28.9 °F 65% 30.10 in 10.0 mi Calm Calm - N/A   Clear
11:53 PM 37.0 °F 34.5 °F 28.9 °F 73% 30.11 in 10.0 mi NW 3.5 mph - N/A   Clear